Location: Tauranga
(37.6860°S, 176.1670°E)
Time: 09:37:20
(UTC+13:00)

Cosmos 1666 Rocket - Pass Details

Date: 24 January 2019
Orbit: 604 x 633 km, 82.5° (Epoch: 18 February)

Event Time Altitude Azimuth Distance (km) Brightness Sun altitude
Rises 21:02:04 0° 183° (S) 2,964 7.5 -5.7°
Reaches altitude 10° 21:04:23 10° 178° (S) 2,045 6.6 -6.1°
Maximum altitude 21:08:51 55° 99° (E) 766 3.8 -6.8°
Drops below altitude 10° 21:13:13 10° 21° (NNE) 2,002 5.7 -7.6°
Enters shadow 21:14:57 - 17° (NNE) 2,690 6.4 -7.9°
